EW1687 Weather Reports


Display with metric or nautical units.
time (UTC)temp
F
wind
direction
speed
MPH
gust
MPH
rain 1hr
in
rain 24hr
in
rain mn
in
humidity
%
barometer
mb
20260505124558 67 236 3.0 12.0 0.00 0.00 0.00 60 1012.1
20260505124056 66 266 4.0 12.0 0.00 0.00 0.00 61 1012.2
20260505123557 66 237 5.0 12.0 0.00 0.00 0.00 61 1012.2
20260505123100 65 248 3.0 13.0 0.00 0.00 0.00 62 1012.1
20260505122555 65 262 4.0 13.0 0.00 0.00 0.00 63 1012.2
20260505122050 64 213 3.0 8.0 0.00 0.00 0.00 65 1012.1
20260505121624 64 231 4.0 8.0 0.00 0.00 0.00 66 1012.2
20260505121051 63 232 3.0 8.0 0.00 0.00 0.00 68 1012.0
20260505120550 62 261 3.0 7.0 0.00 0.00 0.00 70 1011.9
20260505120053 61 269 3.0 7.0 0.00 0.00 0.00 72 1011.9
20260505115549 60 246 2.0 5.0 0.00 0.00 0.00 74 1012.0
20260505115052 60 234 2.0 4.0 0.00 0.00 0.00 75 1011.8
20260505114551 59 0 0.0 1.0 0.00 0.00 0.00 76 1011.8
20260505114052 58 0 0.0 0.0 0.00 0.00 0.00 77 1011.6
20260505113551 58 0 0.0 0.0 0.00 0.00 0.00 78 1011.8
20260505113057 58 0 0.0 0.0 0.00 0.00 0.00 79 1011.6
20260505112550 58 0 0.0 0.0 0.00 0.00 0.00 79 1011.6
20260505112053 57 0 0.0 0.0 0.00 0.00 0.00 80 1011.4
20260505111554 57 0 0.0 0.0 0.00 0.00 0.00 81 1011.4
20260505111055 57 0 0.0 0.0 0.00 0.00 0.00 80 1011.4
20260505110557 56 0 0.0 0.0 0.00 0.00 0.00 81 1011.3
20260505102052 55 0 0.0 0.0 0.00 0.00 0.00 78 1010.8
20260505101602 55 0 0.0 0.0 0.00 0.00 0.00 78 1010.8
20260505101052 55 0 0.0 0.0 0.00 0.00 0.00 78 1010.7
20260505100554 55 0 0.0 0.0 0.00 0.00 0.00 78 1010.9
20260505100136 55 0 0.0 0.0 0.00 0.00 0.00 78 1010.7
20260505095556 55 0 0.0 0.0 0.00 0.00 0.00 78 1010.5
20260505095052 55 0 0.0 0.0 0.00 0.00 0.00 78 1010.7
20260505094558 55 0 0.0 0.0 0.00 0.00 0.00 78 1010.7
20260505094052 55 0 0.0 0.0 0.00 0.00 0.00 78 1010.8
20260505093552 55 0 0.0 0.0 0.00 0.00 0.00 78 1010.7
20260505093053 56 0 0.0 0.0 0.00 0.00 0.00 79 1010.8
20260505092554 55 0 0.0 0.0 0.00 0.00 0.00 78 1010.7
20260505092053 55 0 0.0 0.0 0.00 0.00 0.00 77 1010.7
20260505091616 55 0 0.0 0.0 0.00 0.00 0.00 77 1010.5
20260505091051 55 0 0.0 0.0 0.00 0.00 0.00 77 1010.5
20260505090551 56 0 0.0 0.0 0.00 0.00 0.00 76 1010.4
20260505090101 56 0 0.0 0.0 0.00 0.00 0.00 76 1010.2
20260505085555 56 0 0.0 0.0 0.00 0.00 0.00 75 1010.3
20260505085052 57 0 0.0 0.0 0.00 0.00 0.00 75 1010.2
20260505084553 57 0 0.0 0.0 0.00 0.00 0.00 75 1010.1
20260505084053 57 0 0.0 0.0 0.00 0.00 0.00 74 1010.1
20260505083557 57 0 0.0 0.0 0.00 0.00 0.00 74 1010.2
20260505083056 57 0 0.0 0.0 0.00 0.00 0.00 73 1010.3
20260505082553 58 0 0.0 0.0 0.00 0.00 0.00 73 1010.3
20260505082054 58 0 0.0 0.0 0.00 0.00 0.00 72 1010.3
20260505081554 58 0 0.0 0.0 0.00 0.00 0.00 71 1010.2
20260505081052 59 0 0.0 0.0 0.00 0.00 0.00 70 1010.3
20260505080554 59 0 0.0 0.0 0.00 0.00 0.00 69 1010.2
20260505080054 59 0 0.0 0.0 0.00 0.00 0.00 69 1010.2
20260505075552 59 0 0.0 0.0 0.00 0.00 0.00 68 1010.1
20260505075053 59 0 0.0 0.0 0.00 0.00 0.00 68 1010.2
20260505074556 60 0 0.0 0.0 0.00 0.00 0.00 68 1010.2
20260505074054 60 0 0.0 0.0 0.00 0.00 0.00 67 1010.3
20260505073555 60 0 0.0 0.0 0.00 0.00 0.00 66 1010.1
20260505073059 61 0 0.0 0.0 0.00 0.00 0.00 66 1010.1
20260505072551 61 0 0.0 0.0 0.00 0.00 0.00 65 1010.0
20260505072054 61 0 0.0 0.0 0.00 0.00 0.00 65 1010.0
20260505071556 61 0 0.0 0.0 0.00 0.00 0.00 65 1009.9
20260505071054 62 0 0.0 0.0 0.00 0.00 0.00 65 1009.9
20260505070554 62 0 0.0 0.0 0.00 0.00 0.00 64 1009.8
20260505070057 62 0 0.0 0.0 0.00 0.00 0.00 64 1009.9
20260505065553 62 0 0.0 0.0 0.00 0.00 0.00 63 1010.0
20260505065053 63 0 0.0 1.0 0.00 0.00 0.00 63 1010.0
20260505064607 63 0 0.0 1.0 0.00 0.00 0.00 62 1010.1
20260505064052 63 0 0.0 0.0 0.00 0.00 0.00 63 1010.1
20260505063553 64 0 0.0 0.0 0.00 0.00 0.00 61 1010.2
20260505063057 64 0 0.0 0.0 0.00 0.00 0.00 60 1010.2
20260505062552 64 0 0.0 5.0 0.00 0.00 0.00 60 1010.4
20260505062055 64 0 0.0 9.0 0.00 0.00 0.00 60 1010.5
20260505061556 64 193 1.0 9.0 0.00 0.00 0.00 60 1010.4
20260505061051 65 251 2.0 9.0 0.00 0.00 0.00 60 1010.3
20260505060556 65 251 2.0 9.0 0.00 0.00 0.00 59 1010.4
20260505060058 65 0 2.0 9.0 0.00 0.00 0.00 59 1010.4
20260505055551 65 250 2.0 8.0 0.00 0.00 0.00 59 1010.4
20260505055053 65 244 1.0 5.0 0.00 0.00 0.00 59 1010.3
20260505054620 65 0 1.0 7.0 0.00 0.00 0.00 59 1010.4
20260505054054 65 248 2.0 7.0 0.00 0.00 0.00 59 1010.4
20260505053554 65 223 2.0 8.0 0.00 0.00 0.00 59 1010.3
20260505053054 65 229 1.0 8.0 0.00 0.00 0.00 59 1010.4
20260505052552 65 258 3.0 8.0 0.00 0.00 0.00 59 1010.3
20260505052052 65 229 1.0 6.0 0.00 0.00 0.00 59 1010.3
20260505051552 64 278 1.0 6.0 0.00 0.00 0.00 59 1010.2
20260505051052 65 0 0.0 5.0 0.00 0.00 0.00 60 1010.2
20260505050552 65 207 0.0 5.0 0.00 0.00 0.00 59 1010.2
20260505041605 66 242 3.0 11.0 0.00 0.00 0.00 55 1010.0
20260505041052 66 255 4.0 10.0 0.00 0.00 0.00 55 1010.2
20260505040552 66 254 4.0 13.0 0.00 0.00 0.00 55 1010.1
20260505040058 66 228 6.0 15.0 0.00 0.00 0.00 55 1010.0
20260505035551 66 257 5.0 15.0 0.00 0.00 0.00 55 1010.0
20260505035053 65 215 5.0 11.0 0.00 0.00 0.00 56 1010.1
20260505034601 65 219 3.0 10.0 0.00 0.00 0.00 58 1010.1
20260505034052 64 215 3.0 10.0 0.00 0.00 0.00 59 1009.9
20260505033551 63 200 2.0 8.0 0.00 0.00 0.00 59 1010.1
20260505033054 63 258 2.0 7.0 0.00 0.00 0.00 58 1010.0
20260505032553 63 169 1.0 3.0 0.00 0.00 0.00 58 1010.0
20260505032054 63 0 0.0 2.0 0.00 0.00 0.00 57 1009.8
20260505031555 63 0 0.0 3.0 0.00 0.00 0.00 56 1010.1
20260505031051 63 0 0.0 3.0 0.00 0.00 0.00 56 1010.1
20260505030554 63 0 0.0 3.0 0.00 0.00 0.00 56 1010.1
20260505025553 64 148 1.0 7.0 0.00 0.00 0.00 55 1010.0
20260505025052 64 148 3.0 7.0 0.00 0.00 0.00 55 1009.9
20260505024601 64 148 3.0 8.0 0.00 0.00 0.00 55 1009.8
20260505024052 64 146 5.0 8.0 0.00 0.00 0.00 55 1009.7
20260505023552 64 164 4.0 7.0 0.00 0.00 0.00 54 1009.8
20260505023058 64 166 2.0 11.0 0.00 0.00 0.00 54 1010.0
20260505022554 63 149 4.0 11.0 0.00 0.00 0.00 55 1010.1
20260505022052 63 154 3.0 7.0 0.00 0.00 0.00 56 1010.1
20260505021558 63 157 1.0 7.0 0.00 0.00 0.00 55 1010.0
20260505021051 63 0 0.0 5.0 0.00 0.00 0.00 55 1010.0
20260505020551 63 146 2.0 5.0 0.00 0.00 0.00 54 1010.1
20260505015551 63 145 1.0 5.0 0.00 0.00 0.00 53 1009.9
20260505015053 63 145 2.0 7.0 0.00 0.00 0.00 53 1009.9
20260505014554 63 144 3.0 7.0 0.00 0.00 0.00 53 1009.8
20260505014100 63 147 2.0 6.0 0.00 0.00 0.00 53 1009.9
20260505013552 64 154 1.0 6.0 0.00 0.00 0.00 53 1009.8
20260505013054 64 154 2.0 7.0 0.00 0.00 0.00 52 1009.7
20260505012551 64 154 2.0 7.0 0.00 0.00 0.00 52 1009.9
20260505012054 65 155 2.0 6.0 0.00 0.00 0.00 51 1009.9
20260505011553 65 163 3.0 7.0 0.00 0.00 0.00 50 1009.9
20260505011054 65 163 4.0 7.0 0.00 0.00 0.00 49 1009.8
20260505010555 65 165 3.0 8.0 0.00 0.00 0.00 49 1009.7
20260505010111 66 185 4.0 8.0 0.00 0.00 0.00 49 1009.6
20260505005552 66 169 3.0 8.0 0.00 0.00 0.00 48 1009.5
20260505005052 66 168 4.0 8.0 0.00 0.00 0.00 47 1009.6
20260505004557 67 169 3.0 8.0 0.00 0.00 0.00 47 1009.6
20260505004052 67 182 3.0 7.0 0.00 0.00 0.00 47 1009.2
20260505003551 67 155 3.0 7.0 0.00 0.00 0.00 47 1009.2
20260505003054 67 164 4.0 9.0 0.00 0.00 0.00 46 1009.3
20260505002551 67 169 5.0 9.0 0.00 0.00 0.00 46 1009.2
20260505002052 68 161 4.0 8.0 0.00 0.00 0.00 45 1009.3
20260505001555 68 166 5.0 7.0 0.00 0.00 0.00 46 1009.4
20260505001054 68 167 4.0 7.0 0.00 0.00 0.00 45 1009.3
20260505000552 68 178 4.0 7.0 0.00 0.00 0.00 45 1009.2
20260505000101 69 169 4.0 8.0 0.00 0.00 0.00 45 1009.1
20260504235554 69 167 5.0 8.0 0.00 0.00 0.00 45 1009.0
20260504235052 69 155 5.0 9.0 0.00 0.00 0.00 44 1009.1
20260504234600 70 161 5.0 16.0 0.00 0.00 0.00 43 1009.1
20260504234051 70 157 7.0 16.0 0.00 0.00 0.00 43 1009.0
20260504233555 70 173 5.0 11.0 0.00 0.00 0.00 42 1009.0
20260504233105 71 190 5.0 12.0 0.00 0.00 0.00 43 1009.1
20260504232553 71 160 4.0 12.0 0.00 0.00 0.00 42 1009.1
20260504232052 71 204 5.0 10.0 0.00 0.00 0.00 41 1009.2
20260504231554 71 139 4.0 12.0 0.00 0.00 0.00 41 1009.1
20260504231051 71 161 3.0 12.0 0.00 0.00 0.00 41 1009.2
20260504230555 72 147 2.0 12.0 0.00 0.00 0.00 41 1009.2
20260504230114 72 188 4.0 14.0 0.00 0.00 0.00 40 1009.2
20260504225553 72 161 7.0 14.0 0.00 0.00 0.00 40 1009.2
20260504225056 72 159 3.0 12.0 0.00 0.00 0.00 40 1009.2
20260504224626 72 234 3.0 9.0 0.00 0.00 0.00 41 1009.3
20260504224052 72 171 3.0 12.0 0.00 0.00 0.00 39 1009.2
20260504223552 72 113 4.0 15.0 0.00 0.00 0.00 39 1009.4
20260504223106 72 213 7.0 15.0 0.00 0.00 0.00 41 1009.3
20260504222551 72 138 4.0 12.0 0.00 0.00 0.00 40 1009.5
20260504222051 72 215 4.0 13.0 0.00 0.00 0.00 42 1009.5
20260504221553 72 159 5.0 15.0 0.00 0.00 0.00 41 1009.4
20260504221053 73 132 4.0 15.0 0.00 0.00 0.00 40 1009.4
20260504220552 73 159 6.0 16.0 0.00 0.00 0.00 41 1009.4
20260504220100 73 220 4.0 16.0 0.00 0.00 0.00 39 1009.4
20260504215553 73 183 7.0 16.0 0.00 0.00 0.00 40 1009.5
20260504215054 73 0 6.0 16.0 0.00 0.00 0.00 39 1009.3
20260504214555 73 212 7.0 16.0 0.00 0.00 0.00 39 1009.4
20260504214055 73 168 8.0 16.0 0.00 0.00 0.00 40 1009.6
20260504213551 73 146 7.0 15.0 0.00 0.00 0.00 40 1009.4
20260504213102 73 142 4.0 14.0 0.00 0.00 0.00 39 1009.4
20260504212557 73 194 5.0 19.0 0.00 0.00 0.00 40 1009.4
20260504212055 73 209 5.0 21.0 0.00 0.00 0.00 37 1009.5
20260504211604 73 119 11.0 21.0 0.00 0.00 0.00 39 1009.5
20260504211053 73 146 10.0 20.0 0.00 0.00 0.00 42 1009.3
20260504210557 73 155 5.0 20.0 0.00 0.00 0.00 39 1009.4
20260504205554 74 214 5.0 16.0 0.00 0.00 0.00 39 1009.4
20260504205050 74 157 9.0 16.0 0.00 0.00 0.00 39 1009.3
20260504204605 73 217 3.0 23.0 0.00 0.00 0.00 38 1009.2
20260504204057 73 220 8.0 23.0 0.00 0.00 0.00 38 1009.5
20260504203555 73 151 4.0 17.0 0.00 0.00 0.00 39 1009.3
20260504203056 73 170 7.0 15.0 0.00 0.00 0.00 38 1009.6
20260504202554 73 214 7.0 15.0 0.00 0.00 0.00 39 1009.6
20260504202124 73 86 8.0 16.0 0.00 0.00 0.00 42 1009.6
20260504201610 73 143 7.0 16.0 0.00 0.00 0.00 40 1009.7
20260504201053 73 158 5.0 12.0 0.00 0.00 0.00 38 1009.6
20260504200551 73 236 4.0 15.0 0.00 0.00 0.00 38 1009.9
20260504195551 73 221 4.0 15.0 0.00 0.00 0.00 39 1010.0
20260504195055 73 202 5.0 14.0 0.00 0.00 0.00 39 1010.1
20260504194555 73 144 4.0 17.0 0.00 0.00 0.00 39 1010.0
20260504194054 72 249 7.0 19.0 0.00 0.00 0.00 41 1010.2
20260504193551 72 182 11.0 19.0 0.00 0.00 0.00 40 1010.2
20260504193053 72 142 4.0 11.0 0.00 0.00 0.00 40 1010.3
20260504192555 72 186 4.0 14.0 0.00 0.00 0.00 40 1010.2
20260504192051 72 261 8.0 14.0 0.00 0.00 0.00 38 1010.6
20260504191610 72 205 5.0 14.0 0.00 0.00 0.00 39 1010.7
20260504191054 72 177 8.0 19.0 0.00 0.00 0.00 39 1010.7
20260504190554 72 139 7.0 19.0 0.00 0.00 0.00 41 1010.7
20260504190056 71 141 7.0 16.0 0.00 0.00 0.00 42 1010.8
20260504185553 71 217 8.0 16.0 0.00 0.00 0.00 42 1010.8
20260504185050 71 250 6.0 18.0 0.00 0.00 0.00 40 1010.9
20260504184553 71 202 4.0 19.0 0.00 0.00 0.00 43 1011.0
20260504184052 71 163 11.0 19.0 0.00 0.00 0.00 41 1011.0
20260504183552 71 241 8.0 19.0 0.00 0.00 0.00 38 1011.3
20260504183053 71 252 8.0 19.0 0.00 0.00 0.00 44 1011.4
20260504182552 71 266 5.0 16.0 0.00 0.00 0.00 41 1011.4
20260504182051 71 146 9.0 16.0 0.00 0.00 0.00 40 1011.4
20260504181553 71 225 3.0 15.0 0.00 0.00 0.00 40 1011.5
20260504181051 71 254 6.0 15.0 0.00 0.00 0.00 43 1011.6
20260504180553 71 162 5.0 14.0 0.00 0.00 0.00 41 1011.5
20260504180055 71 0 5.0 12.0 0.00 0.00 0.00 44 1011.6
20260504175551 70 222 4.0 14.0 0.00 0.00 0.00 43 1011.8
20260504175054 69 219 5.0 17.0 0.00 0.00 0.00 42 1011.8
20260504174557 69 165 10.0 18.0 0.00 0.00 0.00 43 1011.8
20260504174051 70 149 10.0 18.0 0.00 0.00 0.00 42 1011.9
20260504173553 70 243 2.0 14.0 0.00 0.00 0.00 42 1012.0
20260504173058 69 150 5.0 14.0 0.00 0.00 0.00 44 1012.1
20260504172550 68 256 4.0 14.0 0.00 0.00 0.00 44 1012.0
20260504172050 68 234 5.0 14.0 0.00 0.00 0.00 43 1012.0
20260504171552 69 227 5.0 14.0 0.00 0.00 0.00 41 1012.1
20260504171052 69 212 5.0 13.0 0.00 0.00 0.00 42 1012.1
20260504170552 69 238 6.0 13.0 0.00 0.00 0.00 41 1012.2
20260504151051 65 253 5.0 15.0 0.00 0.00 0.00 43 1013.7
20260504150554 65 299 6.0 19.0 0.00 0.00 0.00 44 1013.6
20260504141051 62 258 7.0 12.0 0.00 0.00 0.00 43 1013.9
20260504140551 62 261 7.0 13.0 0.00 0.00 0.00 47 1014.0
20260504130553 53 219 2.0 5.0 0.00 0.00 0.00 66 1014.2